Карточка аэропорта UUYY

Внимание!
Информация на этой странице в стадии наполнения.
Если вы не увидели какой-то информации, или заметили неточность - пожалуйста сообщите нам!
Спасибо!
Команда RU-STAFF
Название аэропортаСыктывкар
Название аэропорта (англ.)Syktyvkar
Превышение339 ft. (103.3 m.)
Координаты61°38.502', 50°50.298'
Высота перехода3000 feet
Эшелон переходаQNH>=1013hPa:FL040; QNH<1013hPa:FL050; QNH<977hPa:FL060
Коды ответчика3130-3134, 5752-5757, 5770-5777, 6701-6717
Зона ОрВДСанкт-Петербург РПИ (ULLL)
Данные METARUUYY 290130Z 06003MPS 030V100 9999 -SHRA FEW008 BKN025CB 03/01 Q1019 R36/19//55 NOSIG RMK QFE755/1007
Проноз погоды (TAF)UUYY 282000Z 2821/2921 08003G10MPS 6000 FEW011 BKN020CB TEMPO 2821/2903 0300 -SHRASN FG BKN002 BKN016CB TEMPO 2903/2906 2100 -SHSNRA BKN016CB BECMG 2911/2913 06003MPS
NOTAMshow/hide NOTAM
AWOS   TABLE

Информация о ВПП

ВПП Длина ВПП (м.) Покрытие Курс ВПП Частота ILS
192500Асфальтобетон186111.7
012500Асфальтобетон6108.3

Диспетчерские позиции

Позывной Наименование органа УВД Частота
UUYY_R_APPСивкар-Круг124.600
UUYY_TWRСивкар-Старт124.600



Спутниковое изображение